COSMOS 1275 DEB, 42130

Orbit data source: Space-Track

COSMOS 1275 DEB, 42130 is space debris in LEO originally from a launch on Thu, 04 Jun 1981 UTC launched from the Plesetsk Missile And Space Complex (PKMTR). Debris objects in space refer to the collection of defunct objects orbiting the Earth. Examples of debris include non-operational satellites, rocket bodies, and fragments generated from explosions, collisions, or faulty payload assembly.

Loading next visibility...
Identifier
42130, 1981-053QS
Orbit
LEO
Country
Flag of CISCIS
Related business
Manufacturer
Unknown
Mission
Spacecraft
Bus & Motor
Unknown
Mass
Unknown
Launch date (UTC)
1981-06-04 (45 years ago)
Launch vehicle
Unknown
Launch site
Plesetsk Missile And Space Complex (PKMTR)
Object type
Payload
Rocket body
Debris
Shape & HBR
Unknown shape, 0.1 m
Radar Cross Section
Small (<0.1 m²)

Expand to show TLE details & history
Last TLE update: 6 days ago

TLE from 6 days ago
0 COSMOS 1275 DEB
1 42130U 81053QS  26201.86030109  .00001786  00000-0  78970-3 0  9991
2 42130  82.8564  59.7565 0020242 180.1338 179.9842 14.22662788651374
Epoch: 2026-07-20T20:38Z
TLE epoch observation values (Epoch: 2026-07-20T20:38:50.014Z)
Latitude
-0.00008°
Longitude
171.40981°
Altitude
833.891 km
Speed
7.428 km/s
True Right ascension
03h 59m 01s
True Declination
0° 00' 00"
Sunlit
Object was in daylight at epoch
Visualization orbit readout
Latitude
Unknown
Longitude
Unknown
Altitude
Unknown
Speed
Unknown
Apparent Right ascension
Unknown
Apparent Declination
Unknown
Sunlit
N/A
Visualization observer readout
Local Sidereal Time
00:10:22
Azimuth
Unknown
Elevation
Unknown
Doppler factor
Unknown
Orbital elements
Apogee altitude
828.005 km
Perigee altitude
798.891 km
Semi-major axis
7,191.585 km
Eccentricity
0.00202
Inclination
82.8564°
RAAN
59.7565°
Arg. of periapsis
180.1338°
True anomaly
179.98426°
Mean anomaly
179.9842°
Eccentric anomaly
179.98423°
Mean motion
3.55882 °/min
Orbital period
101.16 mins
BSTAR
0.0007897
Loading maneuver chart data...
Computing Atmospheric mass density...
Loading historical data...
Loading historical data...
Loading historical data...
Loading historical data...
Loading historical data...
Loading historical data...
Loading historical data...

Documentation

Showing up to 5 results
|